• In Belarus
  • List of Countries
  • For 7 days
  • Water Temperature
  • Satellite Maps
  • Weather Map
  • Weather Widgets
  • user-avatar
    Login

    Hourly Weather Zdzieslawice

    Today, 22 May, Tuesday

    Time Temperature Precipitation Wind Pressure Humidity
    00:00 +11°C° 0 mm 3 mps 755 mmHg 81%
    01:00 +12°C° 0 mm 2 mps 755 mmHg 83%
    02:00 +10°C° 0 mm 2 mps 755 mmHg 84%
    03:00 +10°C° 0 mm 2 mps 755 mmHg 86%
    04:00 +9°C° 0 mm 2 mps 755 mmHg 87%
    05:00 +12°C° 0 mm 2 mps 755 mmHg 82%
    06:00 +14°C° 0 mm 2 mps 755 mmHg 78%
    07:00 +15°C° 0 mm 2 mps 754 mmHg 73%
    08:00 +17°C° 0 mm 2 mps 754 mmHg 67%
    09:00 +19°C° 0 mm 3 mps 754 mmHg 62%
    10:00 +20°C° 0 mm 3 mps 754 mmHg 56%
    11:00 +21°C° 0 mm 3 mps 754 mmHg 54%
    12:00 +23°C° 0 mm 2 mps 754 mmHg 51%
    13:00 +24°C° 0 mm 2 mps 753 mmHg 48%
    14:00 +24°C° 0 mm 2 mps 753 mmHg 48%
    15:00 +24°C° 0 mm 2 mps 753 mmHg 48%
    16:00 +24°C° 0 mm 2 mps 753 mmHg 49%
    17:00 +23°C° 0 mm 2 mps 753 mmHg 56%
    18:00 +20°C° 0 mm 2 mps 753 mmHg 62%
    19:00 +19°C° 0 mm 2 mps 753 mmHg 69%
    20:00 +17°C° 0 mm 2 mps 754 mmHg 71%
    21:00 +16°C° 0 mm 2 mps 754 mmHg 72%
    22:00 +15°C° 0 mm 2 mps 755 mmHg 73%
    23:00 +14°C° 0 mm 2 mps 755 mmHg 75%

    Tomorrow, 23 May, Wednesday

    Time Temperature Precipitation Wind Pressure Humidity
    00:00 +14°C° 0 mm 2 mps 755 mmHg 76%
    01:00 +13°C° 0 mm 2 mps 755 mmHg 77%
    02:00 +13°C° 0 mm 2 mps 755 mmHg 79%
    03:00 +13°C° 0 mm 2 mps 755 mmHg 81%
    04:00 +12°C° 0 mm 2 mps 756 mmHg 83%
    05:00 +14°C° 0 mm 2 mps 756 mmHg 79%
    06:00 +16°C° 0 mm 2 mps 756 mmHg 75%
    07:00 +17°C° 0 mm 3 mps 757 mmHg 72%
    08:00 +19°C° 0 mm 3 mps 757 mmHg 67%
    09:00 +21°C° 0 mm 4 mps 757 mmHg 62%
    10:00 +22°C° 0 mm 4 mps 757 mmHg 58%
    11:00 +23°C° 0 mm 4 mps 757 mmHg 57%
    12:00 +23°C° 0 mm 4 mps 757 mmHg 56%
    13:00 +25°C° 0 mm 5 mps 757 mmHg 55%
    14:00 +25°C° 0.2 mm 5 mps 757 mmHg 57%
    15:00 +23°C° 0.2 mm 5 mps 757 mmHg 59%
    16:00 +23°C° 0.2 mm 5 mps 757 mmHg 61%
    17:00 +22°C° 0.1 mm 4 mps 757 mmHg 66%
    18:00 +21°C° 0.1 mm 3 mps 757 mmHg 71%
    19:00 +20°C° 0.1 mm 3 mps 758 mmHg 76%
    20:00 +19°C° 0 mm 3 mps 758 mmHg 77%
    21:00 +18°C° 0 mm 3 mps 758 mmHg 78%
    22:00 +17°C° 0 mm 4 mps 759 mmHg 79%
    23:00 +15°C° 0 mm 4 mps 759 mmHg 81%

    Day after tomorrow, 24 May, Thursday

    Time Temperature Precipitation Wind Pressure Humidity
    00:00 +15°C° 0 mm 4 mps 759 mmHg 83%
    01:00 +14°C° 0 mm 4 mps 759 mmHg 85%
    02:00 +14°C° 0 mm 3 mps 759 mmHg 86%
    03:00 +13°C° 0 mm 3 mps 759 mmHg 87%
    04:00 +13°C° 0 mm 3 mps 759 mmHg 88%
    05:00 +14°C° 0 mm 3 mps 760 mmHg 86%
    06:00 +16°C° 0 mm 3 mps 760 mmHg 83%
    07:00 +17°C° 0 mm 4 mps 760 mmHg 80%
    08:00 +19°C° 0 mm 4 mps 760 mmHg 74%
    09:00 +20°C° 0 mm 5 mps 760 mmHg 68%
    10:00 +22°C° 0 mm 5 mps 760 mmHg 61%
    11:00 +23°C° 0.1 mm 5 mps 760 mmHg 60%
    12:00 +23°C° 0.1 mm 5 mps 759 mmHg 59%
    13:00 +24°C° 0.1 mm 6 mps 759 mmHg 57%
    14:00 +24°C° 0.1 mm 6 mps 759 mmHg 58%
    15:00 +25°C° 0.1 mm 5 mps 759 mmHg 58%
    16:00 +25°C° 0.1 mm 5 mps 758 mmHg 59%
    17:00 +23°C° 0 mm 5 mps 758 mmHg 64%
    18:00 +21°C° 0 mm 4 mps 758 mmHg 70%
    19:00 +20°C° 0 mm 3 mps 758 mmHg 75%
    20:00 +19°C° 0 mm 3 mps 759 mmHg 78%
    21:00 +18°C° 0 mm 3 mps 759 mmHg 82%
    22:00 +17°C° 0 mm 3 mps 759 mmHg 85%
    23:00 +16°C° 0 mm 3 mps 759 mmHg 87%

    25 May, Friday

    Time Temperature Precipitation Wind Pressure Humidity
    00:00 +16°C° 0 mm 3 mps 759 mmHg 89%
    01:00 +14°C° 0 mm 3 mps 759 mmHg 92%
    02:00 +14°C° 0 mm 3 mps 759 mmHg 92%
    03:00 +13°C° 0 mm 3 mps 759 mmHg 93%
    04:00 +14°C° 0 mm 2 mps 759 mmHg 94%
    05:00 +16°C° 0 mm 3 mps 759 mmHg 89%
    06:00 +17°C° 0 mm 3 mps 759 mmHg 83%
    07:00 +19°C° 0 mm 4 mps 759 mmHg 78%
    08:00 +20°C° 0 mm 4 mps 759 mmHg 73%
    09:00 +22°C° 0 mm 5 mps 759 mmHg 67%
    10:00 +25°C° 0 mm 5 mps 759 mmHg 62%
    11:00 +25°C° 0.2 mm 5 mps 759 mmHg 61%
    12:00 +25°C° 0.2 mm 5 mps 759 mmHg 61%
    13:00 +26°C° 0.2 mm 6 mps 759 mmHg 60%
    14:00 +26°C° 0.3 mm 6 mps 758 mmHg 61%
    15:00 +26°C° 0.3 mm 6 mps 758 mmHg 62%
    16:00 +26°C° 0.3 mm 6 mps 758 mmHg 63%
    17:00 +25°C° 0.2 mm 5 mps 758 mmHg 68%
    18:00 +23°C° 0.2 mm 4 mps 758 mmHg 72%
    19:00 +22°C° 0.2 mm 3 mps 758 mmHg 76%
    20:00 +20°C° 0 mm 4 mps 759 mmHg 78%
    21:00 +19°C° 0 mm 4 mps 759 mmHg 80%
    22:00 +18°C° 0 mm 4 mps 759 mmHg 82%
    23:00 +18°C° 0 mm 4 mps 759 mmHg 83%

    26 May, Saturday

    Time Temperature Precipitation Wind Pressure Humidity
    00:00 +17°C° 0 mm 4 mps 759 mmHg 84%
    01:00 +16°C° 0 mm 3 mps 760 mmHg 85%
    02:00 +16°C° 0 mm 3 mps 760 mmHg 87%
    03:00 +14°C° 0 mm 3 mps 760 mmHg 88%
    04:00 +14°C° 0 mm 3 mps 760 mmHg 90%
    05:00 +15°C° 0 mm 4 mps 760 mmHg 86%
    06:00 +18°C° 0 mm 4 mps 760 mmHg 82%
    07:00 +19°C° 0 mm 4 mps 760 mmHg 78%
    08:00 +21°C° 0 mm 5 mps 760 mmHg 71%
    09:00 +22°C° 0 mm 5 mps 760 mmHg 64%
    10:00 +25°C° 0 mm 5 mps 760 mmHg 58%
    11:00 +26°C° 0 mm 5 mps 760 mmHg 55%
    12:00 +26°C° 0 mm 6 mps 760 mmHg 52%
    13:00 +27°C° 0 mm 6 mps 760 mmHg 50%
    14:00 +27°C° 0 mm 5 mps 760 mmHg 51%
    15:00 +26°C° 0 mm 5 mps 760 mmHg 51%
    16:00 +26°C° 0 mm 5 mps 759 mmHg 52%
    17:00 +25°C° 0 mm 4 mps 760 mmHg 59%
    18:00 +23°C° 0 mm 4 mps 760 mmHg 66%
    19:00 +21°C° 0 mm 3 mps 760 mmHg 72%
    20:00 +20°C° 0 mm 3 mps 760 mmHg 76%
    21:00 +19°C° 0 mm 3 mps 760 mmHg 80%
    22:00 +17°C° 0 mm 3 mps 761 mmHg 84%
    23:00 +16°C° 0 mm 3 mps 761 mmHg 87%

    27 May, Sunday

    Time Temperature Precipitation Wind Pressure Humidity
    00:00 +16°C° 0 mm 3 mps 761 mmHg 90%
    01:00 +15°C° 0 mm 2 mps 761 mmHg 92%
    02:00 +15°C° 0 mm 2 mps 761 mmHg 93%
    03:00 +14°C° 0 mm 2 mps 761 mmHg 94%
    04:00 +14°C° 0 mm 2 mps 761 mmHg 95%
    05:00 +15°C° 0 mm 2 mps 761 mmHg 90%
    06:00 +17°C° 0 mm 2 mps 761 mmHg 85%
    07:00 +18°C° 0 mm 3 mps 761 mmHg 79%
    08:00 +20°C° 0 mm 3 mps 761 mmHg 73%
    09:00 +21°C° 0 mm 3 mps 761 mmHg 67%
    10:00 +24°C° 0 mm 3 mps 761 mmHg 61%
    11:00 +24°C° 0 mm 3 mps 761 mmHg 58%
    12:00 +25°C° 0 mm 3 mps 761 mmHg 55%
    13:00 +26°C° 0 mm 4 mps 760 mmHg 52%
    14:00 +26°C° 0 mm 4 mps 760 mmHg 53%
    15:00 +26°C° 0 mm 4 mps 760 mmHg 54%
    16:00 +26°C° 0 mm 4 mps 760 mmHg 56%
    17:00 +23°C° 0 mm 4 mps 760 mmHg 62%
    18:00 +22°C° 0 mm 3 mps 760 mmHg 68%
    19:00 +21°C° 0 mm 3 mps 760 mmHg 75%
    20:00 +20°C° 0 mm 3 mps 760 mmHg 80%
    21:00 +18°C° 0 mm 3 mps 760 mmHg 85%
    22:00 +17°C° 0 mm 2 mps 760 mmHg 89%
    23:00 +16°C° 0 mm 2 mps 760 mmHg 91%
    Show more